Weather in Luhovicy

Russia / Moscow Oblast     54°57′54″N   39°01′31″E
temp.,
°C
wind,
m/s
gust,
m/s
humid.,
%
clouds,
%
prec.,
mm/h
press.,
hPa
HPBL,
m
1 march, mon
mon100:00−8ene229780 0.0 102121
03:00−10nne119675 0.0 102321
06:00−11nw119853 0.0 102421
09:00−8wsw229666 0.0 102578
12:00−3wsw359594 0.0 1024373
15:00−1wsw579194 0.1 1023591
18:00−1wsw51191100 0.0 1021515
21:00+1w61291100 0.0 1019548
2 march, tue
tue200:00+1w61391100 0.0 1016620
03:00+1wsw51294100 0.0 1014593
06:00+1w61294100 0.1 1011616
09:00+1w61397100 0.1 1010595
12:00+1wnw51099100 0.2 1008608
15:00+1nw51194100 0.3 1008689
18:00−1nw4992100 0.1 1008277
21:00−1nnw5119099 0.2 1009592
3 march, wed
wed300:00−2nw51293100 0.2 1011705
03:00−3nw6129382 0.3 1012669
06:00−5nw5138866 0.0 1013620
09:00−5nnw7138883 0.1 1016796
12:00−2nnw6117754 0.0 1016956
15:000wnw698443 0.0 1016921
18:00−1wnw5118899 0.1 1015631
21:00−1w5118999 0.1 1015647
4 march, thu
thu400:00−2w51192100 0.1 1013614
03:00−2wsw61288100 0.1 1010547
06:00−1wsw8178791 0.0 1007556
09:00−1wsw8168693 0.0 1004846
12:00+1w81485100 0.0 10011042
15:000w71398100 0.1 1000880
18:000w71396100 0.4 1000764
21:00−3nw3788100 1.7 1002260
5 march, fri
fri500:00−4wnw3790100 0.0 1004175
03:00−7nw369370 0.0 1005130
06:00−8nw239659 0.0 100864
09:00−7n229273 0.0 1009130
12:00−4n237891 0.0 1010558
15:00−4nnw117396 0.0 1011660
18:00−7wsw118431 0.0 101221
21:00−8n118846 0.0 101321